{"data":{"norad_id":52303,"intl_designator":"2022-041AU","name":"STARLINK-3742","alt_names":[],"object_type":"PAYLOAD","status":"ACTIVE","operator":null,"country":"US","launch_date":"2022-04-21","launch_site_code":"AFETR","launch_vehicle":null,"mission":null,"orbit_class":"UNKNOWN","rcs_meters":null,"size_class":null,"mass_kg":null,"dimensions":null,"purposes":["comms"],"wikipedia_slug":null,"has_3d_model":false,"image_url":null,"decayed_at":null,"tle_current":{"epoch":"2026-05-25T02:27:24.774048Z","epoch_age_seconds":70157,"freshness":"FRESH","line1":"1 52303U 22041AU  26145.10237007  .00000730  00000+0  63973-4 0  9991","line2":"2 52303  53.2146 116.0900 0001155  84.9997 275.1127 15.08837276227262","mean_motion":15.08837276,"eccentricity":0.0001155,"inclination_deg":53.2146,"raan_deg":116.09,"arg_perigee_deg":84.9997,"mean_anomaly_deg":275.1127,"bstar":6.3973e-5,"rev_number":22726,"period_min":95.43772697726,"perigee_km":538.95269900828,"apogee_km":540.55073130148,"semimajor_km":6917.8887151549,"source":"CELESTRAK","updated_at":"2026-05-25T13:38:17.109360Z"}}}